Regional Weather Roundup
Issued by NWS Midland/Odessa, TX

Skip options and go directly to product.
Home | Oldest Version | Previous Version | Current Version | All | Text Only | Save Text | Print | Product List | Glossary Off

Skip product version selection by date and time.   

484
ASUS44 KMAF 021410
RWRMAF
MIDLAND AREA WEATHER ROUNDUP
NATIONAL WEATHER SERVICE MIDLAND TX
900 AM CDT SUN AUG 02 2015

...IN SOUTHWEST TEXAS AND SOUTHEAST NEW MEXICO...

CITY           SKY/WX    TMP DP  RH WIND       PRES   REMARKS
ALPINE         SUNNY     75  61  61 SW6       30.17S
ANDREWS        PTSUNNY   78  62  59 S6        30.05S
ARTESIA        SUNNY     75  64  69 VRB5      30.05S
BIG SPRING     SUNNY     75  58  55 S10       30.04S
CARLSBAD       SUNNY     77  62  59 S3        30.03R
DRYDEN           N/A     81  64  56 W3        29.98S
FORT STOCKTON  SUNNY     78  61  55 SE5       30.04R
GUAD PASS      SUNNY     71  60  68 SW10      30.18R
HOBBS          SUNNY     79  61  53 SE8       30.06S
MARFA          SUNNY     72  63  73 CALM      30.17R
MIDLAND AIRPK  MOSUNNY   79  62  55 S7        30.03S
MIDLAND INTL   SUNNY     77  63  61 S8        30.03R
ODESSA         SUNNY     80  61  52 S10       30.04R
PECOS          SUNNY     76  60  56 CALM      30.00R
PRESIDIO       FAIR      83  59  43 MISG      30.02R
SEMINOLE       MOSUNNY   75  61  62 S3        30.07R
SNYDER         MOSUNNY   75  63  66 S6        30.02F
WINK           SUNNY     81  61  50 SE13      30.00R
$$
...OTHER STATIONS IN TEXAS...

CITY           SKY/WX    TMP DP  RH WIND       PRES   REMARKS
ABILENE        MOSUNNY   79  60  52 SE6       30.02R
AMARILLO       SUNNY     73  65  75 S10       30.06R
AUSTIN         MOSUNNY   80  67  64 CALM      29.96R
BROWNSVILLE    MOSUNNY   81  74  79 CALM      29.90R
CORPUS CHRISTI MOSUNNY   82  74  76 NW6       29.93R
DALLAS FTW     PTSUNNY   84  59  42 S8        29.98R
DEL RIO        SUNNY     80  65  59 SE9       29.93S
EL PASO        PTSUNNY   78  60  53 S5        30.06R
HOUSTON INT    MOSUNNY   84  69  60 N5        29.94R
LUBBOCK        MOSUNNY   73  68  84 S6        30.05S
SAN ANGELO     SUNNY     78  59  51 S7        30.00R
SAN ANTONIO    MOSUNNY   82  67  60 NW3       29.97R
WACO           MOSUNNY   83  60  45 SE6       29.97R
WICHITA FALLS  NOT AVBL
$$
...OTHER LOCATIONS IN NEW MEXICO...

CITY           SKY/WX    TMP DP  RH WIND       PRES   REMARKS
ALAMAGORDO     SUNNY     75  57  53 SE3       30.08F
ALBUQUERQUE    PTSUNNY   68  58  70 N5        30.19R
CANNON AFB     MOSUNNY   71  64  76 S5        30.09S
CLOVIS         SUNNY     72  61  68 S8        30.10F
HOLLOMAN AFB   SUNNY     78  56  46 NW3       30.06S
ROSWELL        SUNNY     76  61  59 VRB3      30.05R
RUIDOSO          N/A    N/A N/A N/A MISG        N/A
SANTA FE       MOSUNNY   66  58  75 N6        30.23S
TRUTH OR CONSE SUNNY     72  61  68 W3        30.13R
TUCUMCARI      MOSUNNY   74  63  68 S7        30.05S
$$

USA.gov is the U.S. government's official web portal to all federal, state and local government web resources and services.